RYR84KH LEAM-EBCI

Flight info

Callsign RYR84KH
Flight time 2h 29m
Altitude 34000
Route ESILA N865 VTB N867 RBO DCT OSTIX N867 DGO N858 ABRIX DCT CNA DCT ADABI DCT BOKNO UN858 VANAD UN874 BAMES UT191 PODEM UN873 BAZOS DCT BELDI DCT VEKIN Z173 ARVOL
Aircraft B738/M-SDE2E3FGHIRWXY/LB1

Departure

Time 2026-04-26 20:02
Airport Almería Airport (LEAM)

Arrival

Time 2026-04-26 22:31
Airport Brussels South Charleroi Airport (EBCI)
Time Latitude Longitude Altitude Speed Heading
2026-04-26 19:41 36.84697 -2.37073 69 ft 0 kts 148°
2026-04-26 19:57 36.84678 -2.37067 68 ft 6 kts 164°
2026-04-26 19:57 36.84627 -2.37086 63 ft 11 kts 242°
2026-04-26 19:58 36.84598 -2.37202 67 ft 17 kts 253°
2026-04-26 19:58 36.84560 -2.37357 64 ft 19 kts 254°
2026-04-26 19:58 36.84510 -2.37502 59 ft 15 kts 208°
2026-04-26 19:58 36.84436 -2.37553 58 ft 14 kts 254°
2026-04-26 19:59 36.84403 -2.37688 61 ft 19 kts 252°
2026-04-26 19:59 36.84360 -2.37863 62 ft 23 kts 253°
2026-04-26 19:59 36.84313 -2.38055 65 ft 23 kts 253°
2026-04-26 19:59 36.84267 -2.38243 64 ft 22 kts 253°
2026-04-26 20:00 36.84222 -2.38426 63 ft 22 kts 253°
2026-04-26 20:00 36.84179 -2.38604 63 ft 21 kts 253°
2026-04-26 20:00 36.84136 -2.38756 63 ft 17 kts 232°
2026-04-26 20:00 36.84033 -2.38758 57 ft 17 kts 135°
2026-04-26 20:01 36.84010 -2.38669 60 ft 16 kts 98°
2026-04-26 20:01 36.84027 -2.38509 60 ft 31 kts 73°
2026-04-26 20:01 36.84165 -2.37947 59 ft 102 kts 73°
2026-04-26 20:01 36.84545 -2.36385 167 ft 168 kts 75°
2026-04-26 20:02 36.84764 -2.35472 752 ft 160 kts 74°
2026-04-26 20:02 36.85083 -2.34174 1711 ft 157 kts 71°
2026-04-26 20:02 36.85436 -2.32767 2147 ft 187 kts 70°
2026-04-26 20:02 36.85706 -2.31692 2330 ft 205 kts 71°
2026-04-26 20:03 36.86310 -2.29283 2926 ft 226 kts 71°
2026-04-26 20:03 36.86758 -2.27383 3736 ft 230 kts 79°
2026-04-26 20:03 36.86656 -2.25392 4654 ft 234 kts 104°
2026-04-26 20:03 36.85924 -2.23549 5489 ft 242 kts 122°
2026-04-26 20:04 36.84639 -2.22146 6241 ft 255 kts 154°
2026-04-26 20:04 36.82947 -2.21437 7057 ft 258 kts 161°
2026-04-26 20:04 36.81213 -2.20791 7811 ft 263 kts 161°
2026-04-26 20:04 36.79456 -2.20135 8621 ft 265 kts 162°
2026-04-26 20:05 36.77666 -2.19690 9371 ft 270 kts 182°
2026-04-26 20:05 36.75875 -2.20298 10163 ft 270 kts 212°
2026-04-26 20:05 36.74540 -2.21960 10894 ft 270 kts 242°
2026-04-26 20:05 36.73862 -2.24109 11624 ft 271 kts 253°
2026-04-26 20:06 36.73323 -2.26378 12354 ft 274 kts 254°
2026-04-26 20:06 36.72783 -2.28663 13113 ft 276 kts 254°
2026-04-26 20:06 36.72227 -2.30968 13870 ft 278 kts 253°
2026-04-26 20:06 36.71950 -2.33354 14465 ft 282 kts 276°
2026-04-26 20:07 36.72530 -2.35697 14942 ft 292 kts 301°
2026-04-26 20:07 36.73849 -2.37721 15149 ft 312 kts 313°
2026-04-26 20:07 36.75423 -2.39724 15284 ft 335 kts 315°
2026-04-26 20:07 36.77120 -2.41827 15487 ft 353 kts 315°
2026-04-26 20:08 36.78899 -2.44031 15876 ft 365 kts 315°
2026-04-26 20:08 36.80704 -2.46282 16512 ft 368 kts 315°
2026-04-26 20:08 36.82511 -2.48553 17189 ft 370 kts 315°
2026-04-26 20:08 36.84331 -2.50853 17834 ft 374 kts 315°
2026-04-26 20:09 36.86164 -2.53177 18436 ft 378 kts 315°
2026-04-26 20:09 36.88016 -2.55532 18986 ft 381 kts 315°
2026-04-26 20:09 36.89877 -2.57902 19569 ft 383 kts 315°
2026-04-26 20:09 36.91748 -2.60287 20122 ft 386 kts 315°
2026-04-26 20:10 36.93640 -2.62700 20645 ft 390 kts 315°
2026-04-26 20:10 36.95547 -2.65136 21180 ft 394 kts 315°
2026-04-26 20:10 36.97467 -2.67588 21730 ft 396 kts 315°
2026-04-26 20:10 36.99403 -2.70063 22281 ft 399 kts 315°
2026-04-26 20:11 37.01348 -2.72551 22798 ft 402 kts 315°
2026-04-26 20:11 37.03309 -2.75061 23305 ft 405 kts 315°
2026-04-26 20:11 37.05221 -2.77661 23777 ft 408 kts 307°
2026-04-26 20:12 37.07891 -2.83995 24612 ft 414 kts 297°
2026-04-26 20:12 37.09141 -2.87260 25035 ft 417 kts 297°
2026-04-26 20:12 37.10403 -2.90537 25462 ft 419 kts 297°
2026-04-26 20:12 37.11666 -2.93782 25873 ft 421 kts 297°
2026-04-26 20:13 37.12963 -2.97084 26270 ft 423 kts 297°
2026-04-26 20:13 37.14270 -3.00398 26672 ft 425 kts 297°
2026-04-26 20:13 37.15588 -3.03730 27048 ft 428 kts 297°
2026-04-26 20:13 37.16915 -3.07085 27415 ft 431 kts 297°
2026-04-26 20:14 37.18247 -3.10458 27767 ft 433 kts 297°
2026-04-26 20:14 37.19586 -3.13853 28143 ft 435 kts 297°
2026-04-26 20:14 37.20928 -3.17260 28496 ft 437 kts 297°
2026-04-26 20:14 37.22275 -3.20685 28898 ft 438 kts 297°
2026-04-26 20:15 37.23618 -3.24103 29383 ft 436 kts 297°
2026-04-26 20:15 37.24953 -3.27502 29993 ft 432 kts 297°
2026-04-26 20:15 37.26290 -3.30872 30457 ft 430 kts 297°
2026-04-26 20:15 37.27638 -3.34219 30844 ft 429 kts 298°
2026-04-26 20:16 37.28988 -3.37556 31247 ft 428 kts 297°
2026-04-26 20:16 37.30328 -3.40875 31683 ft 425 kts 297°
2026-04-26 20:16 37.31663 -3.44191 32055 ft 425 kts 297°
2026-04-26 20:16 37.32993 -3.47504 32358 ft 425 kts 297°
2026-04-26 20:17 37.34322 -3.50820 32692 ft 425 kts 297°
2026-04-26 20:17 37.35649 -3.54135 33076 ft 424 kts 297°
2026-04-26 20:17 37.37010 -3.57408 33465 ft 421 kts 304°
2026-04-26 20:17 37.38211 -3.59317 33652 ft 420 kts 316°
2026-04-26 20:18 37.41426 -3.62029 34089 ft 418 kts 337°
2026-04-26 20:18 37.44226 -3.63066 34064 ft 424 kts 353°
2026-04-26 20:18 37.47173 -3.63218 34103 ft 426 kts 359°
2026-04-26 20:19 37.53083 -3.63062 34088 ft 423 kts
2026-04-26 20:19 37.58903 -3.62937 34079 ft 416 kts 359°
2026-04-26 20:20 37.64696 -3.62889 34086 ft 417 kts 359°
2026-04-26 20:20 37.70459 -3.62847 34092 ft 418 kts 359°
2026-04-26 20:21 37.76282 -3.62798 34081 ft 419 kts 359°
2026-04-26 20:21 37.82166 -3.62749 34079 ft 421 kts 359°
2026-04-26 20:22 37.87995 -3.62700 34077 ft 422 kts 359°
2026-04-26 20:22 37.93880 -3.62651 34070 ft 424 kts 359°
2026-04-26 20:23 37.99779 -3.62602 34064 ft 424 kts 359°
2026-04-26 20:23 38.05690 -3.62553 34063 ft 425 kts 359°
2026-04-26 20:24 38.11600 -3.62503 34066 ft 425 kts 359°
2026-04-26 20:24 38.17512 -3.62353 34069 ft 425 kts
2026-04-26 20:25 38.23405 -3.61790 34073 ft 425 kts
2026-04-26 20:25 38.29290 -3.61155 34079 ft 424 kts
2026-04-26 20:26 38.35170 -3.60555 34081 ft 424 kts
2026-04-26 20:26 38.41049 -3.59979 34081 ft 423 kts
2026-04-26 20:27 38.46917 -3.59410 34088 ft 423 kts
2026-04-26 20:27 38.52783 -3.58841 34091 ft 423 kts
2026-04-26 20:28 38.58644 -3.58271 34096 ft 422 kts
2026-04-26 20:28 38.64505 -3.57699 34094 ft 423 kts
2026-04-26 20:29 38.70370 -3.57126 34096 ft 423 kts
2026-04-26 20:29 38.76241 -3.56552 34099 ft 423 kts
2026-04-26 20:30 38.82122 -3.55975 34101 ft 424 kts
2026-04-26 20:30 38.88010 -3.55397 34102 ft 425 kts
2026-04-26 20:31 38.93906 -3.54817 34095 ft 425 kts
2026-04-26 20:31 38.99815 -3.54235 34102 ft 426 kts
2026-04-26 20:32 39.05728 -3.53650 34105 ft 426 kts
2026-04-26 20:32 39.11647 -3.53061 34105 ft 427 kts
2026-04-26 20:33 39.17572 -3.52470 34108 ft 427 kts
2026-04-26 20:33 39.23493 -3.51880 34106 ft 427 kts
2026-04-26 20:34 39.29410 -3.51288 34108 ft 426 kts
2026-04-26 20:34 39.35318 -3.50697 34110 ft 426 kts
2026-04-26 20:35 39.41221 -3.50105 34112 ft 425 kts
2026-04-26 20:35 39.47110 -3.49513 34111 ft 424 kts
2026-04-26 20:36 39.52987 -3.48922 34112 ft 423 kts
2026-04-26 20:36 39.58859 -3.48330 34115 ft 423 kts
2026-04-26 20:37 39.64681 -3.47748 34112 ft 422 kts
2026-04-26 20:37 39.70541 -3.47160 34112 ft 422 kts
2026-04-26 20:38 39.76397 -3.46572 34112 ft 422 kts
2026-04-26 20:38 39.82232 -3.45714 34116 ft 422 kts
2026-04-26 20:39 39.88037 -3.44506 34114 ft 423 kts
2026-04-26 20:39 39.93844 -3.43280 34114 ft 423 kts
2026-04-26 20:40 39.99664 -3.42089 34101 ft 423 kts
2026-04-26 20:40 40.05492 -3.40914 34108 ft 424 kts
2026-04-26 20:41 40.11331 -3.39741 34125 ft 425 kts
2026-04-26 20:41 40.17178 -3.38564 34121 ft 426 kts
2026-04-26 20:42 40.23037 -3.37382 34124 ft 426 kts
2026-04-26 20:42 40.28904 -3.36195 34131 ft 427 kts
2026-04-26 20:43 40.34772 -3.35006 34130 ft 427 kts
2026-04-26 20:43 40.40643 -3.33815 34135 ft 427 kts
2026-04-26 20:44 40.46506 -3.32623 34132 ft 426 kts
2026-04-26 20:44 40.52368 -3.31429 34129 ft 426 kts
2026-04-26 20:45 40.58221 -3.30235 34131 ft 425 kts
2026-04-26 20:45 40.64059 -3.29042 34121 ft 424 kts
2026-04-26 20:46 40.69845 -3.27857 34134 ft 423 kts
2026-04-26 20:46 40.75665 -3.26663 34136 ft 423 kts
2026-04-26 20:47 40.81475 -3.25470 34144 ft 422 kts
2026-04-26 20:47 40.87278 -3.24264 34136 ft 422 kts
2026-04-26 20:48 40.93076 -3.22971 34156 ft 422 kts
2026-04-26 20:48 40.98868 -3.21659 34164 ft 422 kts
2026-04-26 20:49 41.04662 -3.20353 34157 ft 423 kts
2026-04-26 20:49 41.09481 -3.19269 34160 ft 423 kts
2026-04-26 20:50 41.15284 -3.17963 34173 ft 423 kts
2026-04-26 20:50 41.21089 -3.16655 34177 ft 423 kts
2026-04-26 20:51 41.26898 -3.15343 34161 ft 424 kts
2026-04-26 20:51 41.32710 -3.14028 34178 ft 424 kts
2026-04-26 20:52 41.38525 -3.12710 34169 ft 424 kts
2026-04-26 20:52 41.44349 -3.11388 34173 ft 425 kts
2026-04-26 20:53 41.50173 -3.10063 34165 ft 425 kts
2026-04-26 20:53 41.56008 -3.08739 34171 ft 425 kts
2026-04-26 20:54 41.61840 -3.07417 34173 ft 426 kts
2026-04-26 20:54 41.67683 -3.06088 34173 ft 426 kts
2026-04-26 20:55 41.73524 -3.04758 34177 ft 426 kts
2026-04-26 20:55 41.79370 -3.03416 34179 ft 426 kts
2026-04-26 20:56 41.85180 -3.02076 34188 ft 426 kts
2026-04-26 20:56 41.91028 -3.00726 34186 ft 426 kts
2026-04-26 20:57 41.96875 -2.99374 34184 ft 426 kts
2026-04-26 20:57 42.02719 -2.98020 34194 ft 426 kts
2026-04-26 20:58 42.08561 -2.96664 34191 ft 426 kts
2026-04-26 20:58 42.14396 -2.95307 34194 ft 425 kts
2026-04-26 20:59 42.20225 -2.93949 34195 ft 425 kts
2026-04-26 20:59 42.26051 -2.92589 34193 ft 425 kts
2026-04-26 21:00 42.31870 -2.91228 34191 ft 424 kts
2026-04-26 21:00 42.37679 -2.89867 34181 ft 424 kts
2026-04-26 21:01 42.43491 -2.88470 34187 ft 424 kts 13°
2026-04-26 21:01 42.48959 -2.85526 34192 ft 425 kts 28°
2026-04-26 21:02 42.54116 -2.81580 34181 ft 426 kts 29°
2026-04-26 21:02 42.59271 -2.77598 34186 ft 427 kts 29°
2026-04-26 21:03 42.64453 -2.73638 34190 ft 428 kts 28°
2026-04-26 21:03 42.69615 -2.69715 34182 ft 429 kts 28°
2026-04-26 21:04 42.74829 -2.65753 34184 ft 429 kts 28°
2026-04-26 21:04 42.80045 -2.61783 34187 ft 430 kts 28°
2026-04-26 21:05 42.85270 -2.57797 34190 ft 431 kts 28°
2026-04-26 21:05 42.90501 -2.53797 34182 ft 431 kts 28°
2026-04-26 21:06 42.95730 -2.49791 34191 ft 431 kts 28°
2026-04-26 21:06 43.00964 -2.45774 34196 ft 431 kts 28°
2026-04-26 21:07 43.06191 -2.41754 34208 ft 431 kts 28°
2026-04-26 21:07 43.11419 -2.37725 34205 ft 431 kts 28°
2026-04-26 21:08 43.16640 -2.33694 34213 ft 431 kts 28°
2026-04-26 21:08 43.21860 -2.29656 34203 ft 431 kts 28°
2026-04-26 21:09 43.27074 -2.25614 34210 ft 430 kts 28°
2026-04-26 21:09 43.32285 -2.21566 34208 ft 430 kts 28°
2026-04-26 21:10 43.37493 -2.17513 34210 ft 430 kts 28°
2026-04-26 21:10 43.42698 -2.13454 34206 ft 430 kts 28°
2026-04-26 21:11 43.47906 -2.09384 34208 ft 430 kts 28°
2026-04-26 21:11 43.53077 -2.05335 34206 ft 431 kts 28°
2026-04-26 21:12 43.58289 -2.01245 34208 ft 431 kts 28°
2026-04-26 21:12 43.63504 -1.97146 34202 ft 432 kts 28°
2026-04-26 21:13 43.68726 -1.93034 34201 ft 432 kts 28°
2026-04-26 21:13 43.73947 -1.88912 34195 ft 432 kts 28°
2026-04-26 21:14 43.79174 -1.84777 34193 ft 433 kts 28°
2026-04-26 21:14 43.84400 -1.80633 34199 ft 433 kts 28°
2026-04-26 21:15 43.89631 -1.76477 34194 ft 433 kts 28°
2026-04-26 21:15 43.94858 -1.72316 34196 ft 433 kts 28°
2026-04-26 21:16 44.00087 -1.68144 34194 ft 433 kts 28°
2026-04-26 21:16 44.05313 -1.63966 34197 ft 433 kts 28°
2026-04-26 21:17 44.10540 -1.59779 34193 ft 433 kts 28°
2026-04-26 21:17 44.15762 -1.55587 34195 ft 433 kts 28°
2026-04-26 21:18 44.20981 -1.51390 34191 ft 433 kts 28°
2026-04-26 21:18 44.26202 -1.47182 34191 ft 433 kts 28°
2026-04-26 21:19 44.31418 -1.42968 34190 ft 433 kts 28°
2026-04-26 21:19 44.36634 -1.38747 34191 ft 433 kts 28°
2026-04-26 21:20 44.41849 -1.34517 34186 ft 433 kts 28°
2026-04-26 21:20 44.47027 -1.30309 34187 ft 433 kts 28°
2026-04-26 21:21 44.52240 -1.26064 34185 ft 433 kts 28°
2026-04-26 21:21 44.57451 -1.21811 34187 ft 434 kts 28°
2026-04-26 21:22 44.62663 -1.17548 34190 ft 434 kts 28°
2026-04-26 21:22 44.67743 -1.13385 34183 ft 434 kts 28°
2026-04-26 21:23 44.75556 -1.06964 34186 ft 434 kts 28°
2026-04-26 21:23 44.80760 -1.02677 34185 ft 433 kts 28°
2026-04-26 21:24 44.85961 -0.98384 34184 ft 433 kts 28°
2026-04-26 21:24 44.91158 -0.94083 34186 ft 433 kts 28°
2026-04-26 21:25 44.96356 -0.89774 34183 ft 433 kts 28°
2026-04-26 21:25 45.01548 -0.85460 34185 ft 433 kts 28°
2026-04-26 21:26 45.06737 -0.81140 34184 ft 433 kts 28°
2026-04-26 21:26 45.11926 -0.76810 34183 ft 433 kts 28°
2026-04-26 21:27 45.17113 -0.72472 34177 ft 433 kts 28°
2026-04-26 21:27 45.22301 -0.68124 34176 ft 433 kts 28°
2026-04-26 21:28 45.27492 -0.63765 34178 ft 433 kts 28°
2026-04-26 21:28 45.32678 -0.59401 34180 ft 434 kts 28°
2026-04-26 21:29 45.37869 -0.55022 34180 ft 434 kts 28°
2026-04-26 21:29 45.43060 -0.50635 34176 ft 434 kts 28°
2026-04-26 21:30 45.48248 -0.46240 34184 ft 434 kts 28°
2026-04-26 21:30 45.52556 -0.42583 34185 ft 434 kts 28°
2026-04-26 21:31 45.58616 -0.37427 34190 ft 434 kts 28°
2026-04-26 21:31 45.63802 -0.33006 34187 ft 434 kts 28°
2026-04-26 21:32 45.68958 -0.28508 34184 ft 435 kts 30°
2026-04-26 21:32 45.74040 -0.23818 34181 ft 435 kts 31°
2026-04-26 21:33 45.79116 -0.19099 34182 ft 435 kts 31°
2026-04-26 21:33 45.84199 -0.14391 34179 ft 435 kts 30°
2026-04-26 21:34 45.89287 -0.09684 34169 ft 435 kts 30°
2026-04-26 21:34 45.94371 -0.04974 34184 ft 435 kts 30°
2026-04-26 21:35 45.99458 -0.00251 34179 ft 435 kts 30°
2026-04-26 21:35 46.04504 0.04445 34182 ft 435 kts 30°
2026-04-26 21:36 46.08761 0.08415 34177 ft 435 kts 30°
2026-04-26 21:36 46.14667 0.13935 34181 ft 435 kts 30°
2026-04-26 21:37 46.19748 0.18695 34181 ft 435 kts 30°
2026-04-26 21:37 46.24825 0.23462 34183 ft 435 kts 30°
2026-04-26 21:38 46.29043 0.27431 34190 ft 435 kts 30°
2026-04-26 21:38 46.34115 0.32214 34199 ft 435 kts 30°
2026-04-26 21:39 46.39184 0.37005 34187 ft 435 kts 30°
2026-04-26 21:39 46.44249 0.41803 34182 ft 435 kts 31°
2026-04-26 21:40 46.49309 0.46606 34185 ft 435 kts 31°
2026-04-26 21:40 46.54380 0.51383 34180 ft 433 kts 27°
2026-04-26 21:41 46.59929 0.54513 34188 ft 426 kts 10°
2026-04-26 21:41 46.65718 0.56351 34182 ft 426 kts
2026-04-26 21:42 46.71512 0.58173 34186 ft 426 kts
2026-04-26 21:42 46.77303 0.60059 34188 ft 427 kts
2026-04-26 21:43 46.83096 0.61976 34183 ft 427 kts
2026-04-26 21:43 46.88899 0.63903 34190 ft 428 kts
2026-04-26 21:44 46.94709 0.65836 34188 ft 428 kts
2026-04-26 21:44 47.00521 0.67772 34188 ft 428 kts
2026-04-26 21:45 47.06353 0.69484 34184 ft 425 kts
2026-04-26 21:45 47.12237 0.70096 34199 ft 424 kts 360°
2026-04-26 21:46 47.18124 0.70602 34204 ft 424 kts
2026-04-26 21:46 47.24001 0.71176 34206 ft 423 kts
2026-04-26 21:47 47.29879 0.71788 34208 ft 423 kts
2026-04-26 21:47 47.35754 0.72407 34212 ft 423 kts
2026-04-26 21:48 47.41628 0.73026 34215 ft 423 kts
2026-04-26 21:48 47.47463 0.73640 34213 ft 423 kts
2026-04-26 21:49 47.53245 0.75470 34227 ft 429 kts 15°
2026-04-26 21:49 47.58898 0.78343 34209 ft 430 kts 16°
2026-04-26 21:50 47.64557 0.81220 34213 ft 430 kts 15°
2026-04-26 21:50 47.70232 0.84040 34211 ft 430 kts 15°
2026-04-26 21:51 47.75911 0.86847 34206 ft 430 kts 15°
2026-04-26 21:51 47.81594 0.89663 34213 ft 431 kts 15°
2026-04-26 21:52 47.87277 0.92501 34215 ft 431 kts 15°
2026-04-26 21:52 47.92948 0.95370 34215 ft 431 kts 15°
2026-04-26 21:53 47.98620 0.98246 34220 ft 430 kts 15°
2026-04-26 21:53 48.04283 1.01121 34216 ft 430 kts 15°
2026-04-26 21:54 48.09943 1.04001 34219 ft 429 kts 15°
2026-04-26 21:54 48.15594 1.06882 34220 ft 429 kts 16°
2026-04-26 21:55 48.21236 1.09764 34226 ft 428 kts 15°
2026-04-26 21:55 48.26820 1.12612 34235 ft 428 kts 15°
2026-04-26 21:56 48.32459 1.15485 34229 ft 428 kts 15°
2026-04-26 21:56 48.38098 1.18367 34230 ft 428 kts 15°
2026-04-26 21:57 48.43733 1.21256 34232 ft 428 kts 15°
2026-04-26 21:57 48.49360 1.24148 34235 ft 428 kts 15°
2026-04-26 21:58 48.54995 1.27050 34234 ft 428 kts 15°
2026-04-26 21:58 48.60628 1.29904 34241 ft 427 kts 15°
2026-04-26 21:59 48.66233 1.32716 34239 ft 427 kts 15°
2026-04-26 21:59 48.71878 1.35561 34249 ft 427 kts 15°
2026-04-26 22:00 48.77517 1.38417 34239 ft 427 kts 15°
2026-04-26 22:00 48.83153 1.41279 34239 ft 427 kts 15°
2026-04-26 22:01 48.88781 1.44145 34239 ft 426 kts 15°
2026-04-26 22:01 48.94400 1.47011 34245 ft 426 kts 15°
2026-04-26 22:02 48.99152 1.49114 34234 ft 422 kts
2026-04-26 22:02 49.05881 1.50640 34241 ft 420 kts
2026-04-26 22:03 49.11671 1.51916 34251 ft 421 kts
2026-04-26 22:03 49.17458 1.53262 34238 ft 420 kts
2026-04-26 22:04 49.23238 1.54730 34241 ft 425 kts 12°
2026-04-26 22:04 49.26022 1.56324 34259 ft 431 kts 23°
2026-04-26 22:04 49.28591 1.58740 34251 ft 437 kts 35°
2026-04-26 22:05 49.33062 1.65129 34253 ft 441 kts 41°
2026-04-26 22:05 49.37442 1.71741 34255 ft 442 kts 41°
2026-04-26 22:06 49.41864 1.78294 34252 ft 441 kts 40°
2026-04-26 22:06 49.46292 1.84802 34260 ft 440 kts 40°
2026-04-26 22:07 49.50700 1.91294 34260 ft 438 kts 40°
2026-04-26 22:07 49.55060 1.97741 34248 ft 428 kts 40°
2026-04-26 22:08 49.59305 2.04040 34256 ft 422 kts 40°
2026-04-26 22:08 49.63530 2.10314 34266 ft 422 kts 40°
2026-04-26 22:09 49.67638 2.16441 34236 ft 401 kts 40°
2026-04-26 22:09 49.69608 2.19388 34229 ft 388 kts 40°
2026-04-26 22:09 49.71514 2.22241 34229 ft 375 kts 40°
2026-04-26 22:10 49.73369 2.25018 33881 ft 368 kts 40°
2026-04-26 22:10 49.75192 2.27746 33379 ft 364 kts 40°
2026-04-26 22:10 49.77042 2.30510 32243 ft 378 kts 40°
2026-04-26 22:10 49.78983 2.33411 31126 ft 393 kts 40°
2026-04-26 22:11 49.80901 2.36297 30936 ft 381 kts 41°
2026-04-26 22:11 49.82802 2.39160 30589 ft 380 kts 41°
2026-04-26 22:11 49.84688 2.42004 30260 ft 378 kts 41°
2026-04-26 22:11 49.86566 2.44838 29862 ft 376 kts 41°
2026-04-26 22:12 49.88426 2.47648 29516 ft 372 kts 41°
2026-04-26 22:12 49.90274 2.50442 29142 ft 370 kts 41°
2026-04-26 22:12 49.92106 2.53213 28797 ft 366 kts 41°
2026-04-26 22:12 49.93927 2.55972 28388 ft 365 kts 41°
2026-04-26 22:13 49.95733 2.58710 28108 ft 361 kts 41°
2026-04-26 22:13 49.97534 2.61445 27731 ft 361 kts 41°
2026-04-26 22:13 49.99321 2.64162 27405 ft 359 kts 41°
2026-04-26 22:13 50.01115 2.66892 27063 ft 363 kts 41°
2026-04-26 22:14 50.02943 2.69675 26721 ft 372 kts 41°
2026-04-26 22:14 50.04805 2.72512 26356 ft 375 kts 41°
2026-04-26 22:14 50.06660 2.75348 25980 ft 373 kts 42°
2026-04-26 22:14 50.08507 2.78174 25618 ft 371 kts 42°
2026-04-26 22:15 50.10345 2.80990 25258 ft 369 kts 42°
2026-04-26 22:15 50.12170 2.83788 24900 ft 368 kts 42°
2026-04-26 22:15 50.13988 2.86579 24542 ft 366 kts 42°
2026-04-26 22:15 50.15797 2.89359 24188 ft 365 kts 42°
2026-04-26 22:16 50.17603 2.92137 23821 ft 364 kts 42°
2026-04-26 22:16 50.19401 2.94904 23418 ft 362 kts 42°
2026-04-26 22:16 50.21189 2.97662 23028 ft 360 kts 42°
2026-04-26 22:16 50.22964 3.00400 22658 ft 358 kts 42°
2026-04-26 22:17 50.24727 3.03125 22312 ft 355 kts 43°
2026-04-26 22:17 50.26480 3.05836 21962 ft 353 kts 43°
2026-04-26 22:17 50.28216 3.08525 21620 ft 351 kts 43°
2026-04-26 22:17 50.29944 3.11202 21284 ft 348 kts 43°
2026-04-26 22:18 50.31658 3.13862 20943 ft 346 kts 43°
2026-04-26 22:18 50.33365 3.16513 20606 ft 345 kts 43°
2026-04-26 22:18 50.35060 3.19150 20260 ft 343 kts 43°
2026-04-26 22:18 50.36751 3.21780 19931 ft 341 kts 43°
2026-04-26 22:19 50.38428 3.24394 19600 ft 340 kts 43°
2026-04-26 22:19 50.40101 3.27003 19257 ft 339 kts 43°
2026-04-26 22:19 50.41758 3.29590 18903 ft 332 kts 43°
2026-04-26 22:19 50.43387 3.32134 18415 ft 330 kts 43°
2026-04-26 22:20 50.45005 3.34664 17847 ft 327 kts 43°
2026-04-26 22:20 50.46070 3.36330 17507 ft 325 kts 43°
2026-04-26 22:20 50.48177 3.39630 16839 ft 321 kts 43°
2026-04-26 22:20 50.49748 3.42092 16335 ft 318 kts 43°
2026-04-26 22:21 50.51306 3.44538 15845 ft 315 kts 43°
2026-04-26 22:21 50.52836 3.46976 15351 ft 313 kts 48°
2026-04-26 22:21 50.53887 3.49940 14840 ft 313 kts 74°
2026-04-26 22:21 50.54084 3.53320 14362 ft 311 kts 97°
2026-04-26 22:22 50.53685 3.56645 13870 ft 309 kts 102°
2026-04-26 22:22 50.53205 3.59929 13337 ft 307 kts 103°
2026-04-26 22:22 50.52715 3.63182 12838 ft 304 kts 103°
2026-04-26 22:22 50.52232 3.66407 12361 ft 301 kts 103°
2026-04-26 22:23 50.51759 3.69596 11893 ft 299 kts 102°
2026-04-26 22:23 50.51293 3.72765 11413 ft 296 kts 102°
2026-04-26 22:23 50.50828 3.75952 10670 ft 304 kts 102°
2026-04-26 22:23 50.50355 3.79203 10026 ft 306 kts 102°
2026-04-26 22:24 50.50035 3.81405 9634 ft 305 kts 102°
2026-04-26 22:24 50.49416 3.85665 8955 ft 300 kts 102°
2026-04-26 22:24 50.49109 3.87773 8501 ft 301 kts 102°
2026-04-26 22:24 50.48639 3.91002 7778 ft 304 kts 102°
2026-04-26 22:25 50.48168 3.94232 7210 ft 302 kts 102°
2026-04-26 22:25 50.47701 3.97427 6683 ft 298 kts 102°
2026-04-26 22:25 50.47238 4.00585 6131 ft 295 kts 102°
2026-04-26 22:25 50.46782 4.03702 5580 ft 292 kts 102°
2026-04-26 22:26 50.46330 4.06779 5161 ft 284 kts 102°
2026-04-26 22:26 50.45891 4.09757 4864 ft 274 kts 102°
2026-04-26 22:26 50.45472 4.12589 4693 ft 259 kts 102°
2026-04-26 22:26 50.45056 4.15259 4481 ft 248 kts 108°
2026-04-26 22:27 50.44138 4.17456 4253 ft 240 kts 137°
2026-04-26 22:27 50.42758 4.18847 3991 ft 232 kts 152°
2026-04-26 22:27 50.41327 4.19881 3768 ft 221 kts 153°
2026-04-26 22:27 50.40225 4.21382 3486 ft 205 kts 116°
2026-04-26 22:28 50.39918 4.23492 3232 ft 198 kts 90°
2026-04-26 22:28 50.40210 4.25653 2997 ft 211 kts 64°
2026-04-26 22:28 50.40838 4.27717 2747 ft 207 kts 64°
2026-04-26 22:28 50.41435 4.29706 2540 ft 194 kts 64°
2026-04-26 22:29 50.41997 4.31554 2369 ft 183 kts 65°
2026-04-26 22:29 50.42506 4.33280 2142 ft 172 kts 65°
2026-04-26 22:29 50.42987 4.34934 1921 ft 162 kts 65°
2026-04-26 22:29 50.43435 4.36481 1747 ft 147 kts 65°
2026-04-26 22:30 50.43853 4.37924 1509 ft 144 kts 65°
2026-04-26 22:30 50.44257 4.39314 1323 ft 138 kts 65°
2026-04-26 22:30 50.44657 4.40686 1128 ft 140 kts 65°
2026-04-26 22:30 50.45067 4.42106 969 ft 146 kts 65°
2026-04-26 22:31 50.45486 4.43553 776 ft 145 kts 65°
2026-04-26 22:31 50.45889 4.44957 623 ft 133 kts 65°
2026-04-26 22:31 50.46234 4.46137 615 ft 99 kts 65°
2026-04-26 22:31 50.46411 4.46748 623 ft 32 kts 65°
2026-04-26 22:32 50.46474 4.46885 619 ft 13 kts 19°
2026-04-26 22:32 50.46550 4.46864 612 ft 9 kts 337°
2026-04-26 22:32 50.46616 4.46820 621 ft 11 kts 336°
2026-04-26 22:32 50.46659 4.46788 612 ft 6 kts 334°
2026-04-26 22:33 50.46682 4.46745 615 ft 5 kts 284°
2026-04-26 22:33 50.46690 4.46670 621 ft 4 kts 329°
2026-04-26 22:33 50.46717 4.46649 617 ft 4 kts 335°
2026-04-26 22:34 50.46729 4.46640 612 ft 0 kts 335°
2026-04-26 22:34 50.46733 4.46638 612 ft 0 kts 335°
2026-04-26 22:34 50.46737 4.46635 620 ft 0 kts 335°